Index of /20260430/WXO-DD/model_rdps/10km/18/071
Name Last modified Size Description
Parent Directory -
20260430T18Z_MSC_RDPS_AbsoluteVorticity_IsbL-0250_RLatLon0.09_PT071H.grib2 2026-04-30 21:00 610K
20260430T18Z_MSC_RDPS_AbsoluteVorticity_IsbL-0500_RLatLon0.09_PT071H.grib2 2026-04-30 21:00 562K
20260430T18Z_MSC_RDPS_AbsoluteVorticity_IsbL-0700_RLatLon0.09_PT071H.grib2 2026-04-30 21:00 619K
20260430T18Z_MSC_RDPS_AbsoluteVorticity_IsbL-0850_RLatLon0.09_PT071H.grib2 2026-04-30 21:00 788K
20260430T18Z_MSC_RDPS_AirTemp_AGL-120m_RLatLon0.09_PT071H.grib2 2026-04-30 21:00 398K
20260430T18Z_MSC_RDPS_AirTemp_AGL-2m_RLatLon0.09_PT071H.grib2 2026-04-30 21:00 637K
20260430T18Z_MSC_RDPS_AirTemp_AGL-40m_RLatLon0.09_PT071H.grib2 2026-04-30 21:00 408K
20260430T18Z_MSC_RDPS_AirTemp_AGL-80m_RLatLon0.09_PT071H.grib2 2026-04-30 21:00 402K
20260430T18Z_MSC_RDPS_AirTemp_IsbL-0001_RLatLon0.09_PT071H.grib2 2026-04-30 21:00 325K
20260430T18Z_MSC_RDPS_AirTemp_IsbL-0005_RLatLon0.09_PT071H.grib2 2026-04-30 21:00 288K
20260430T18Z_MSC_RDPS_AirTemp_IsbL-0010_RLatLon0.09_PT071H.grib2 2026-04-30 21:00 300K
20260430T18Z_MSC_RDPS_AirTemp_IsbL-0020_RLatLon0.09_PT071H.grib2 2026-04-30 21:00 318K
20260430T18Z_MSC_RDPS_AirTemp_IsbL-0030_RLatLon0.09_PT071H.grib2 2026-04-30 21:00 341K
20260430T18Z_MSC_RDPS_AirTemp_IsbL-0050_RLatLon0.09_PT071H.grib2 2026-04-30 21:00 316K
20260430T18Z_MSC_RDPS_AirTemp_IsbL-0100_RLatLon0.09_PT071H.grib2 2026-04-30 21:00 427K
20260430T18Z_MSC_RDPS_AirTemp_IsbL-0150_RLatLon0.09_PT071H.grib2 2026-04-30 21:00 416K
20260430T18Z_MSC_RDPS_AirTemp_IsbL-0175_RLatLon0.09_PT071H.grib2 2026-04-30 21:00 406K
20260430T18Z_MSC_RDPS_AirTemp_IsbL-0200_RLatLon0.09_PT071H.grib2 2026-04-30 21:00 413K
20260430T18Z_MSC_RDPS_AirTemp_IsbL-0225_RLatLon0.09_PT071H.grib2 2026-04-30 21:00 415K
20260430T18Z_MSC_RDPS_AirTemp_IsbL-0250_RLatLon0.09_PT071H.grib2 2026-04-30 21:00 422K
20260430T18Z_MSC_RDPS_AirTemp_IsbL-0275_RLatLon0.09_PT071H.grib2 2026-04-30 21:00 402K
20260430T18Z_MSC_RDPS_AirTemp_IsbL-0300_RLatLon0.09_PT071H.grib2 2026-04-30 21:00 409K
20260430T18Z_MSC_RDPS_AirTemp_IsbL-0350_RLatLon0.09_PT071H.grib2 2026-04-30 21:00 421K
20260430T18Z_MSC_RDPS_AirTemp_IsbL-0400_RLatLon0.09_PT071H.grib2 2026-04-30 21:00 423K
20260430T18Z_MSC_RDPS_AirTemp_IsbL-0450_RLatLon0.09_PT071H.grib2 2026-04-30 21:00 431K
20260430T18Z_MSC_RDPS_AirTemp_IsbL-0500_RLatLon0.09_PT071H.grib2 2026-04-30 21:00 405K
20260430T18Z_MSC_RDPS_AirTemp_IsbL-0550_RLatLon0.09_PT071H.grib2 2026-04-30 21:00 423K
20260430T18Z_MSC_RDPS_AirTemp_IsbL-0600_RLatLon0.09_PT071H.grib2 2026-04-30 21:00 439K
20260430T18Z_MSC_RDPS_AirTemp_IsbL-0650_RLatLon0.09_PT071H.grib2 2026-04-30 21:00 454K
20260430T18Z_MSC_RDPS_AirTemp_IsbL-0700_RLatLon0.09_PT071H.grib2 2026-04-30 21:00 482K
20260430T18Z_MSC_RDPS_AirTemp_IsbL-0750_RLatLon0.09_PT071H.grib2 2026-04-30 21:00 521K
20260430T18Z_MSC_RDPS_AirTemp_IsbL-0800_RLatLon0.09_PT071H.grib2 2026-04-30 21:00 456K
20260430T18Z_MSC_RDPS_AirTemp_IsbL-0850_RLatLon0.09_PT071H.grib2 2026-04-30 21:00 638K
20260430T18Z_MSC_RDPS_AirTemp_IsbL-0875_RLatLon0.09_PT071H.grib2 2026-04-30 21:00 532K
20260430T18Z_MSC_RDPS_AirTemp_IsbL-0900_RLatLon0.09_PT071H.grib2 2026-04-30 21:00 542K
20260430T18Z_MSC_RDPS_AirTemp_IsbL-0925_RLatLon0.09_PT071H.grib2 2026-04-30 21:00 535K
20260430T18Z_MSC_RDPS_AirTemp_IsbL-0950_RLatLon0.09_PT071H.grib2 2026-04-30 21:00 535K
20260430T18Z_MSC_RDPS_AirTemp_IsbL-0970_RLatLon0.09_PT071H.grib2 2026-04-30 21:00 530K
20260430T18Z_MSC_RDPS_AirTemp_IsbL-0985_RLatLon0.09_PT071H.grib2 2026-04-30 21:00 520K
20260430T18Z_MSC_RDPS_AirTemp_IsbL-1000_RLatLon0.09_PT071H.grib2 2026-04-30 21:00 505K
20260430T18Z_MSC_RDPS_AirTemp_IsbL-1015_RLatLon0.09_PT071H.grib2 2026-04-30 21:00 505K
20260430T18Z_MSC_RDPS_Albedo_Sfc_RLatLon0.09_PT071H.grib2 2026-04-30 21:00 156K
20260430T18Z_MSC_RDPS_CAPE_Sfc_RLatLon0.09_PT071H.grib2 2026-04-30 21:00 1.8M
20260430T18Z_MSC_RDPS_CIN_Sfc_RLatLon0.09_PT071H.grib2 2026-04-30 21:00 1.1M
20260430T18Z_MSC_RDPS_CloudWater_EAtm_RLatLon0.09_PT071H.grib2 2026-04-30 21:00 221K
20260430T18Z_MSC_RDPS_ConvectivePrecip-Accum_Sfc_RLatLon0.09_PT071H.grib2 2026-04-30 21:00 1.2M
20260430T18Z_MSC_RDPS_DewPointDepression_AGL-2m_RLatLon0.09_PT071H.grib2 2026-04-30 21:00 428K
20260430T18Z_MSC_RDPS_DewPointDepression_IsbL-0001_RLatLon0.09_PT071H.grib2 2026-04-30 21:00 193
20260430T18Z_MSC_RDPS_DewPointDepression_IsbL-0005_RLatLon0.09_PT071H.grib2 2026-04-30 21:00 193
20260430T18Z_MSC_RDPS_DewPointDepression_IsbL-0010_RLatLon0.09_PT071H.grib2 2026-04-30 21:00 193
20260430T18Z_MSC_RDPS_DewPointDepression_IsbL-0020_RLatLon0.09_PT071H.grib2 2026-04-30 21:00 193
20260430T18Z_MSC_RDPS_DewPointDepression_IsbL-0030_RLatLon0.09_PT071H.grib2 2026-04-30 21:00 193
20260430T18Z_MSC_RDPS_DewPointDepression_IsbL-0050_RLatLon0.09_PT071H.grib2 2026-04-30 21:00 102K
20260430T18Z_MSC_RDPS_DewPointDepression_IsbL-0100_RLatLon0.09_PT071H.grib2 2026-04-30 21:00 119K
20260430T18Z_MSC_RDPS_DewPointDepression_IsbL-0150_RLatLon0.09_PT071H.grib2 2026-04-30 21:00 144K
20260430T18Z_MSC_RDPS_DewPointDepression_IsbL-0175_RLatLon0.09_PT071H.grib2 2026-04-30 21:00 179K
20260430T18Z_MSC_RDPS_DewPointDepression_IsbL-0200_RLatLon0.09_PT071H.grib2 2026-04-30 21:00 216K
20260430T18Z_MSC_RDPS_DewPointDepression_IsbL-0225_RLatLon0.09_PT071H.grib2 2026-04-30 21:00 255K
20260430T18Z_MSC_RDPS_DewPointDepression_IsbL-0250_RLatLon0.09_PT071H.grib2 2026-04-30 21:00 294K
20260430T18Z_MSC_RDPS_DewPointDepression_IsbL-0275_RLatLon0.09_PT071H.grib2 2026-04-30 21:00 304K
20260430T18Z_MSC_RDPS_DewPointDepression_IsbL-0300_RLatLon0.09_PT071H.grib2 2026-04-30 21:00 323K
20260430T18Z_MSC_RDPS_DewPointDepression_IsbL-0350_RLatLon0.09_PT071H.grib2 2026-04-30 21:00 330K
20260430T18Z_MSC_RDPS_DewPointDepression_IsbL-0400_RLatLon0.09_PT071H.grib2 2026-04-30 21:00 338K
20260430T18Z_MSC_RDPS_DewPointDepression_IsbL-0450_RLatLon0.09_PT071H.grib2 2026-04-30 21:00 342K
20260430T18Z_MSC_RDPS_DewPointDepression_IsbL-0500_RLatLon0.09_PT071H.grib2 2026-04-30 21:00 348K
20260430T18Z_MSC_RDPS_DewPointDepression_IsbL-0550_RLatLon0.09_PT071H.grib2 2026-04-30 21:00 360K
20260430T18Z_MSC_RDPS_DewPointDepression_IsbL-0600_RLatLon0.09_PT071H.grib2 2026-04-30 21:00 367K
20260430T18Z_MSC_RDPS_DewPointDepression_IsbL-0650_RLatLon0.09_PT071H.grib2 2026-04-30 21:00 373K
20260430T18Z_MSC_RDPS_DewPointDepression_IsbL-0700_RLatLon0.09_PT071H.grib2 2026-04-30 21:00 386K
20260430T18Z_MSC_RDPS_DewPointDepression_IsbL-0750_RLatLon0.09_PT071H.grib2 2026-04-30 21:00 410K
20260430T18Z_MSC_RDPS_DewPointDepression_IsbL-0800_RLatLon0.09_PT071H.grib2 2026-04-30 21:00 444K
20260430T18Z_MSC_RDPS_DewPointDepression_IsbL-0850_RLatLon0.09_PT071H.grib2 2026-04-30 21:00 483K
20260430T18Z_MSC_RDPS_DewPointDepression_IsbL-0875_RLatLon0.09_PT071H.grib2 2026-04-30 21:00 482K
20260430T18Z_MSC_RDPS_DewPointDepression_IsbL-0900_RLatLon0.09_PT071H.grib2 2026-04-30 21:00 473K
20260430T18Z_MSC_RDPS_DewPointDepression_IsbL-0925_RLatLon0.09_PT071H.grib2 2026-04-30 21:00 458K
20260430T18Z_MSC_RDPS_DewPointDepression_IsbL-0950_RLatLon0.09_PT071H.grib2 2026-04-30 21:00 454K
20260430T18Z_MSC_RDPS_DewPointDepression_IsbL-0970_RLatLon0.09_PT071H.grib2 2026-04-30 21:00 447K
20260430T18Z_MSC_RDPS_DewPointDepression_IsbL-0985_RLatLon0.09_PT071H.grib2 2026-04-30 21:00 445K
20260430T18Z_MSC_RDPS_DewPointDepression_IsbL-1000_RLatLon0.09_PT071H.grib2 2026-04-30 21:00 441K
20260430T18Z_MSC_RDPS_DewPointDepression_IsbL-1015_RLatLon0.09_PT071H.grib2 2026-04-30 21:00 434K
20260430T18Z_MSC_RDPS_DewPoint_AGL-2m_RLatLon0.09_PT071H.grib2 2026-04-30 21:00 407K
20260430T18Z_MSC_RDPS_DownwardLongwaveRadiationFlux-Accum_Sfc_RLatLon0.09_PT071H.grib2 2026-04-30 21:00 424K
20260430T18Z_MSC_RDPS_DownwardShortwaveRadiationFlux-Accum_NTAtm_RLatLon0.09_PT071H.grib2 2026-04-30 21:00 132K
20260430T18Z_MSC_RDPS_DownwardShortwaveRadiationFlux-Accum_Sfc_RLatLon0.09_PT071H.grib2 2026-04-30 21:00 618K
20260430T18Z_MSC_RDPS_FreezingRain-Accum1h_Sfc_RLatLon0.09_PT071H.grib2 2026-04-30 21:00 18K
20260430T18Z_MSC_RDPS_FreezingRain-Accum_Sfc_RLatLon0.09_PT071H.grib2 2026-04-30 21:00 217K
20260430T18Z_MSC_RDPS_GeopotentialHeight_IsbL-0001_RLatLon0.09_PT071H.grib2 2026-04-30 21:00 352K
20260430T18Z_MSC_RDPS_GeopotentialHeight_IsbL-0005_RLatLon0.09_PT071H.grib2 2026-04-30 21:00 305K
20260430T18Z_MSC_RDPS_GeopotentialHeight_IsbL-0010_RLatLon0.09_PT071H.grib2 2026-04-30 21:00 306K
20260430T18Z_MSC_RDPS_GeopotentialHeight_IsbL-0020_RLatLon0.09_PT071H.grib2 2026-04-30 21:00 306K
20260430T18Z_MSC_RDPS_GeopotentialHeight_IsbL-0030_RLatLon0.09_PT071H.grib2 2026-04-30 21:00 308K
20260430T18Z_MSC_RDPS_GeopotentialHeight_IsbL-0050_RLatLon0.09_PT071H.grib2 2026-04-30 21:00 310K
20260430T18Z_MSC_RDPS_GeopotentialHeight_IsbL-0100_RLatLon0.09_PT071H.grib2 2026-04-30 21:00 288K
20260430T18Z_MSC_RDPS_GeopotentialHeight_IsbL-0150_RLatLon0.09_PT071H.grib2 2026-04-30 21:00 230K
20260430T18Z_MSC_RDPS_GeopotentialHeight_IsbL-0175_RLatLon0.09_PT071H.grib2 2026-04-30 21:00 233K
20260430T18Z_MSC_RDPS_GeopotentialHeight_IsbL-0200_RLatLon0.09_PT071H.grib2 2026-04-30 21:00 264K
20260430T18Z_MSC_RDPS_GeopotentialHeight_IsbL-0225_RLatLon0.09_PT071H.grib2 2026-04-30 21:00 264K
20260430T18Z_MSC_RDPS_GeopotentialHeight_IsbL-0250_RLatLon0.09_PT071H.grib2 2026-04-30 21:00 265K
20260430T18Z_MSC_RDPS_GeopotentialHeight_IsbL-0275_RLatLon0.09_PT071H.grib2 2026-04-30 21:00 265K
20260430T18Z_MSC_RDPS_GeopotentialHeight_IsbL-0300_RLatLon0.09_PT071H.grib2 2026-04-30 21:00 234K
20260430T18Z_MSC_RDPS_GeopotentialHeight_IsbL-0350_RLatLon0.09_PT071H.grib2 2026-04-30 21:00 230K
20260430T18Z_MSC_RDPS_GeopotentialHeight_IsbL-0400_RLatLon0.09_PT071H.grib2 2026-04-30 21:00 227K
20260430T18Z_MSC_RDPS_GeopotentialHeight_IsbL-0450_RLatLon0.09_PT071H.grib2 2026-04-30 21:00 296K
20260430T18Z_MSC_RDPS_GeopotentialHeight_IsbL-0500_RLatLon0.09_PT071H.grib2 2026-04-30 21:00 291K
20260430T18Z_MSC_RDPS_GeopotentialHeight_IsbL-0550_RLatLon0.09_PT071H.grib2 2026-04-30 21:00 287K
20260430T18Z_MSC_RDPS_GeopotentialHeight_IsbL-0600_RLatLon0.09_PT071H.grib2 2026-04-30 21:00 284K
20260430T18Z_MSC_RDPS_GeopotentialHeight_IsbL-0650_RLatLon0.09_PT071H.grib2 2026-04-30 21:00 254K
20260430T18Z_MSC_RDPS_GeopotentialHeight_IsbL-0700_RLatLon0.09_PT071H.grib2 2026-04-30 21:00 255K
20260430T18Z_MSC_RDPS_GeopotentialHeight_IsbL-0750_RLatLon0.09_PT071H.grib2 2026-04-30 21:00 259K
20260430T18Z_MSC_RDPS_GeopotentialHeight_IsbL-0800_RLatLon0.09_PT071H.grib2 2026-04-30 21:00 352K
20260430T18Z_MSC_RDPS_GeopotentialHeight_IsbL-0850_RLatLon0.09_PT071H.grib2 2026-04-30 21:00 362K
20260430T18Z_MSC_RDPS_GeopotentialHeight_IsbL-0875_RLatLon0.09_PT071H.grib2 2026-04-30 21:00 366K
20260430T18Z_MSC_RDPS_GeopotentialHeight_IsbL-0900_RLatLon0.09_PT071H.grib2 2026-04-30 21:00 369K
20260430T18Z_MSC_RDPS_GeopotentialHeight_IsbL-0925_RLatLon0.09_PT071H.grib2 2026-04-30 21:00 370K
20260430T18Z_MSC_RDPS_GeopotentialHeight_IsbL-0950_RLatLon0.09_PT071H.grib2 2026-04-30 21:00 373K
20260430T18Z_MSC_RDPS_GeopotentialHeight_IsbL-0970_RLatLon0.09_PT071H.grib2 2026-04-30 21:00 381K
20260430T18Z_MSC_RDPS_GeopotentialHeight_IsbL-0985_RLatLon0.09_PT071H.grib2 2026-04-30 21:00 390K
20260430T18Z_MSC_RDPS_GeopotentialHeight_IsbL-1000_RLatLon0.09_PT071H.grib2 2026-04-30 21:00 403K
20260430T18Z_MSC_RDPS_GeopotentialHeight_IsbL-1015_RLatLon0.09_PT071H.grib2 2026-04-30 21:00 417K
20260430T18Z_MSC_RDPS_Humidex_Sfc_RLatLon0.09_PT071H.grib2 2026-04-30 21:00 2.4M
20260430T18Z_MSC_RDPS_IcePellets-Accum1h_Sfc_RLatLon0.09_PT071H.grib2 2026-04-30 21:00 1.0K
20260430T18Z_MSC_RDPS_IcePellets-Accum_Sfc_RLatLon0.09_PT071H.grib2 2026-04-30 21:00 33K
20260430T18Z_MSC_RDPS_KIndex_Sfc_RLatLon0.09_PT071H.grib2 2026-04-30 21:00 2.3M
20260430T18Z_MSC_RDPS_LatentHeatNetFlux_Sfc_RLatLon0.09_PT071H.grib2 2026-04-30 21:00 402K
20260430T18Z_MSC_RDPS_LiftedIndex-MU-VT_IsbL-0500_RLatLon0.09_PT071H.grib2 2026-04-30 21:00 2.4M
20260430T18Z_MSC_RDPS_NetLongwaveRadiationFlux-Accum_Sfc_RLatLon0.09_PT071H.grib2 2026-04-30 21:00 473K
20260430T18Z_MSC_RDPS_NetShortwaveRadiationFlux-Accum_Sfc_RLatLon0.09_PT071H.grib2 2026-04-30 21:00 620K
20260430T18Z_MSC_RDPS_PlanetaryBoundaryLayerHeight_Sfc_RLatLon0.09_PT071H.grib2 2026-04-30 21:00 1.0M
20260430T18Z_MSC_RDPS_Precip-Accum1h_Sfc_RLatLon0.09_PT071H.grib2 2026-04-30 21:00 1.2M
20260430T18Z_MSC_RDPS_Precip-Accum_Sfc_RLatLon0.09_PT071H.grib2 2026-04-30 21:00 2.2M
20260430T18Z_MSC_RDPS_PrecipRate_Sfc_RLatLon0.09_PT071H.grib2 2026-04-30 21:00 165K
20260430T18Z_MSC_RDPS_PrecipType-Instant_Sfc_RLatLon0.09_PT071H.grib2 2026-04-30 21:00 585K
20260430T18Z_MSC_RDPS_Pressure-Trend3h_Sfc_RLatLon0.09_PT071H.grib2 2026-04-30 21:00 1.2M
20260430T18Z_MSC_RDPS_Pressure_MSL_RLatLon0.09_PT071H.grib2 2026-04-30 21:00 333K
20260430T18Z_MSC_RDPS_Pressure_PVU-1.5_RLatLon0.09_PT071H.grib2 2026-04-30 21:00 2.5M
20260430T18Z_MSC_RDPS_Pressure_PVU-1_RLatLon0.09_PT071H.grib2 2026-04-30 21:00 2.4M
20260430T18Z_MSC_RDPS_Pressure_PVU-2_RLatLon0.09_PT071H.grib2 2026-04-30 21:00 2.4M
20260430T18Z_MSC_RDPS_Pressure_Sfc_RLatLon0.09_PT071H.grib2 2026-04-30 21:00 500K
20260430T18Z_MSC_RDPS_RadiativeTemp_Sfc_RLatLon0.09_PT071H.grib2 2026-04-30 21:00 325K
20260430T18Z_MSC_RDPS_Rain-Accum1h_Sfc_RLatLon0.09_PT071H.grib2 2026-04-30 21:00 530K
20260430T18Z_MSC_RDPS_Rain-Accum_Sfc_RLatLon0.09_PT071H.grib2 2026-04-30 21:00 1.8M
20260430T18Z_MSC_RDPS_RelativeHumidity_AGL-2m_RLatLon0.09_PT071H.grib2 2026-04-30 21:00 1.0M
20260430T18Z_MSC_RDPS_RelativeHumidity_IsbL-0010_RLatLon0.09_PT071H.grib2 2026-04-30 21:00 616K
20260430T18Z_MSC_RDPS_RelativeHumidity_IsbL-0020_RLatLon0.09_PT071H.grib2 2026-04-30 21:00 656K
20260430T18Z_MSC_RDPS_RelativeHumidity_IsbL-0030_RLatLon0.09_PT071H.grib2 2026-04-30 21:00 605K
20260430T18Z_MSC_RDPS_RelativeHumidity_IsbL-0050_RLatLon0.09_PT071H.grib2 2026-04-30 21:00 359K
20260430T18Z_MSC_RDPS_RelativeHumidity_IsbL-0100_RLatLon0.09_PT071H.grib2 2026-04-30 21:00 277K
20260430T18Z_MSC_RDPS_RelativeHumidity_IsbL-0150_RLatLon0.09_PT071H.grib2 2026-04-30 21:00 411K
20260430T18Z_MSC_RDPS_RelativeHumidity_IsbL-0175_RLatLon0.09_PT071H.grib2 2026-04-30 21:00 472K
20260430T18Z_MSC_RDPS_RelativeHumidity_IsbL-0200_RLatLon0.09_PT071H.grib2 2026-04-30 21:00 550K
20260430T18Z_MSC_RDPS_RelativeHumidity_IsbL-0225_RLatLon0.09_PT071H.grib2 2026-04-30 21:00 613K
20260430T18Z_MSC_RDPS_RelativeHumidity_IsbL-0250_RLatLon0.09_PT071H.grib2 2026-04-30 21:00 678K
20260430T18Z_MSC_RDPS_RelativeHumidity_IsbL-0275_RLatLon0.09_PT071H.grib2 2026-04-30 21:00 702K
20260430T18Z_MSC_RDPS_RelativeHumidity_IsbL-0300_RLatLon0.09_PT071H.grib2 2026-04-30 21:00 744K
20260430T18Z_MSC_RDPS_RelativeHumidity_IsbL-0350_RLatLon0.09_PT071H.grib2 2026-04-30 21:00 769K
20260430T18Z_MSC_RDPS_RelativeHumidity_IsbL-0400_RLatLon0.09_PT071H.grib2 2026-04-30 21:00 785K
20260430T18Z_MSC_RDPS_RelativeHumidity_IsbL-0450_RLatLon0.09_PT071H.grib2 2026-04-30 21:00 790K
20260430T18Z_MSC_RDPS_RelativeHumidity_IsbL-0500_RLatLon0.09_PT071H.grib2 2026-04-30 21:00 795K
20260430T18Z_MSC_RDPS_RelativeHumidity_IsbL-0550_RLatLon0.09_PT071H.grib2 2026-04-30 21:00 814K
20260430T18Z_MSC_RDPS_RelativeHumidity_IsbL-0600_RLatLon0.09_PT071H.grib2 2026-04-30 21:00 832K
20260430T18Z_MSC_RDPS_RelativeHumidity_IsbL-0650_RLatLon0.09_PT071H.grib2 2026-04-30 21:00 844K
20260430T18Z_MSC_RDPS_RelativeHumidity_IsbL-0700_RLatLon0.09_PT071H.grib2 2026-04-30 21:00 868K
20260430T18Z_MSC_RDPS_RelativeHumidity_IsbL-0750_RLatLon0.09_PT071H.grib2 2026-04-30 21:00 920K
20260430T18Z_MSC_RDPS_RelativeHumidity_IsbL-0800_RLatLon0.09_PT071H.grib2 2026-04-30 21:00 1.0M
20260430T18Z_MSC_RDPS_RelativeHumidity_IsbL-0850_RLatLon0.09_PT071H.grib2 2026-04-30 21:00 1.0M
20260430T18Z_MSC_RDPS_RelativeHumidity_IsbL-0875_RLatLon0.09_PT071H.grib2 2026-04-30 21:00 1.1M
20260430T18Z_MSC_RDPS_RelativeHumidity_IsbL-0900_RLatLon0.09_PT071H.grib2 2026-04-30 21:00 1.1M
20260430T18Z_MSC_RDPS_RelativeHumidity_IsbL-0925_RLatLon0.09_PT071H.grib2 2026-04-30 21:00 1.1M
20260430T18Z_MSC_RDPS_RelativeHumidity_IsbL-0950_RLatLon0.09_PT071H.grib2 2026-04-30 21:00 1.1M
20260430T18Z_MSC_RDPS_RelativeHumidity_IsbL-0970_RLatLon0.09_PT071H.grib2 2026-04-30 21:00 1.1M
20260430T18Z_MSC_RDPS_RelativeHumidity_IsbL-0985_RLatLon0.09_PT071H.grib2 2026-04-30 21:00 1.0M
20260430T18Z_MSC_RDPS_RelativeHumidity_IsbL-1000_RLatLon0.09_PT071H.grib2 2026-04-30 21:00 1.0M
20260430T18Z_MSC_RDPS_RelativeHumidity_IsbL-1015_RLatLon0.09_PT071H.grib2 2026-04-30 21:00 1.0M
20260430T18Z_MSC_RDPS_Runoff-Accum_Sfc_RLatLon0.09_PT071H.grib2 2026-04-30 21:00 67K
20260430T18Z_MSC_RDPS_SWEATIndex_Sfc_RLatLon0.09_PT071H.grib2 2026-04-30 21:00 2.4M
20260430T18Z_MSC_RDPS_SeeingIndex_EAtm_RLatLon0.09_PT071H.grib2 2026-04-30 21:00 1.0M
20260430T18Z_MSC_RDPS_SensibleHeatNetFlux_Sfc_RLatLon0.09_PT071H.grib2 2026-04-30 21:00 369K
20260430T18Z_MSC_RDPS_ShowalterIndex_IsbL-0500_RLatLon0.09_PT071H.grib2 2026-04-30 21:00 2.6M
20260430T18Z_MSC_RDPS_SkyTransparencyIndex_EAtm_RLatLon0.09_PT071H.grib2 2026-04-30 21:00 722K
20260430T18Z_MSC_RDPS_Snow-Accum1h_Sfc_RLatLon0.09_PT071H.grib2 2026-04-30 21:00 450K
20260430T18Z_MSC_RDPS_Snow-Accum_Sfc_RLatLon0.09_PT071H.grib2 2026-04-30 21:00 764K
20260430T18Z_MSC_RDPS_SnowDensity_Sfc_RLatLon0.09_PT071H.grib2 2026-04-30 21:00 174K
20260430T18Z_MSC_RDPS_SnowDepth_Sfc_RLatLon0.09_PT071H.grib2 2026-04-30 21:00 658K
20260430T18Z_MSC_RDPS_SoilTemp_DBS-0to10cm_RLatLon0.09_PT071H.grib2 2026-04-30 21:00 244K
20260430T18Z_MSC_RDPS_SoilTemp_Sfc_RLatLon0.09_PT071H.grib2 2026-04-30 21:00 297K
20260430T18Z_MSC_RDPS_SoilVolumetricIceContent_Sfc_RLatLon0.09_PT071H.grib2 2026-04-30 21:00 158K
20260430T18Z_MSC_RDPS_SoilVolumetricWaterContent_DBS-0to10cm_RLatLon0.09_PT071H.grib2 2026-04-30 21:00 274K
20260430T18Z_MSC_RDPS_SoilVolumetricWaterContent_DBS-0to1cm_RLatLon0.09_PT071H.grib2 2026-04-30 21:00 343K
20260430T18Z_MSC_RDPS_SpecificHumidity_AGL-120m_RLatLon0.09_PT071H.grib2 2026-04-30 21:00 505K
20260430T18Z_MSC_RDPS_SpecificHumidity_AGL-2m_RLatLon0.09_PT071H.grib2 2026-04-30 21:00 676K
20260430T18Z_MSC_RDPS_SpecificHumidity_AGL-40m_RLatLon0.09_PT071H.grib2 2026-04-30 21:00 511K
20260430T18Z_MSC_RDPS_SpecificHumidity_AGL-80m_RLatLon0.09_PT071H.grib2 2026-04-30 21:00 507K
20260430T18Z_MSC_RDPS_SpecificHumidity_IsbL-0001_RLatLon0.09_PT071H.grib2 2026-04-30 21:00 372K
20260430T18Z_MSC_RDPS_SpecificHumidity_IsbL-0005_RLatLon0.09_PT071H.grib2 2026-04-30 21:00 361K
20260430T18Z_MSC_RDPS_SpecificHumidity_IsbL-0010_RLatLon0.09_PT071H.grib2 2026-04-30 21:00 392K
20260430T18Z_MSC_RDPS_SpecificHumidity_IsbL-0020_RLatLon0.09_PT071H.grib2 2026-04-30 21:00 372K
20260430T18Z_MSC_RDPS_SpecificHumidity_IsbL-0030_RLatLon0.09_PT071H.grib2 2026-04-30 21:00 475K
20260430T18Z_MSC_RDPS_SpecificHumidity_IsbL-0050_RLatLon0.09_PT071H.grib2 2026-04-30 21:00 472K
20260430T18Z_MSC_RDPS_SpecificHumidity_IsbL-0100_RLatLon0.09_PT071H.grib2 2026-04-30 21:00 416K
20260430T18Z_MSC_RDPS_SpecificHumidity_IsbL-0150_RLatLon0.09_PT071H.grib2 2026-04-30 21:00 450K
20260430T18Z_MSC_RDPS_SpecificHumidity_IsbL-0175_RLatLon0.09_PT071H.grib2 2026-04-30 21:00 433K
20260430T18Z_MSC_RDPS_SpecificHumidity_IsbL-0200_RLatLon0.09_PT071H.grib2 2026-04-30 21:00 450K
20260430T18Z_MSC_RDPS_SpecificHumidity_IsbL-0225_RLatLon0.09_PT071H.grib2 2026-04-30 21:00 450K
20260430T18Z_MSC_RDPS_SpecificHumidity_IsbL-0250_RLatLon0.09_PT071H.grib2 2026-04-30 21:00 552K
20260430T18Z_MSC_RDPS_SpecificHumidity_IsbL-0275_RLatLon0.09_PT071H.grib2 2026-04-30 21:00 468K
20260430T18Z_MSC_RDPS_SpecificHumidity_IsbL-0300_RLatLon0.09_PT071H.grib2 2026-04-30 21:00 566K
20260430T18Z_MSC_RDPS_SpecificHumidity_IsbL-0350_RLatLon0.09_PT071H.grib2 2026-04-30 21:00 537K
20260430T18Z_MSC_RDPS_SpecificHumidity_IsbL-0400_RLatLon0.09_PT071H.grib2 2026-04-30 21:00 518K
20260430T18Z_MSC_RDPS_SpecificHumidity_IsbL-0450_RLatLon0.09_PT071H.grib2 2026-04-30 21:00 567K
20260430T18Z_MSC_RDPS_SpecificHumidity_IsbL-0500_RLatLon0.09_PT071H.grib2 2026-04-30 21:00 502K
20260430T18Z_MSC_RDPS_SpecificHumidity_IsbL-0550_RLatLon0.09_PT071H.grib2 2026-04-30 21:00 559K
20260430T18Z_MSC_RDPS_SpecificHumidity_IsbL-0600_RLatLon0.09_PT071H.grib2 2026-04-30 21:00 626K
20260430T18Z_MSC_RDPS_SpecificHumidity_IsbL-0650_RLatLon0.09_PT071H.grib2 2026-04-30 21:00 543K
20260430T18Z_MSC_RDPS_SpecificHumidity_IsbL-0700_RLatLon0.09_PT071H.grib2 2026-04-30 21:00 586K
20260430T18Z_MSC_RDPS_SpecificHumidity_IsbL-0750_RLatLon0.09_PT071H.grib2 2026-04-30 21:00 644K
20260430T18Z_MSC_RDPS_SpecificHumidity_IsbL-0800_RLatLon0.09_PT071H.grib2 2026-04-30 21:00 729K
20260430T18Z_MSC_RDPS_SpecificHumidity_IsbL-0850_RLatLon0.09_PT071H.grib2 2026-04-30 21:00 812K
20260430T18Z_MSC_RDPS_SpecificHumidity_IsbL-0875_RLatLon0.09_PT071H.grib2 2026-04-30 21:00 840K
20260430T18Z_MSC_RDPS_SpecificHumidity_IsbL-0900_RLatLon0.09_PT071H.grib2 2026-04-30 21:00 714K
20260430T18Z_MSC_RDPS_SpecificHumidity_IsbL-0925_RLatLon0.09_PT071H.grib2 2026-04-30 21:00 713K
20260430T18Z_MSC_RDPS_SpecificHumidity_IsbL-0950_RLatLon0.09_PT071H.grib2 2026-04-30 21:00 716K
20260430T18Z_MSC_RDPS_SpecificHumidity_IsbL-0970_RLatLon0.09_PT071H.grib2 2026-04-30 21:00 709K
20260430T18Z_MSC_RDPS_SpecificHumidity_IsbL-0985_RLatLon0.09_PT071H.grib2 2026-04-30 21:00 705K
20260430T18Z_MSC_RDPS_SpecificHumidity_IsbL-1000_RLatLon0.09_PT071H.grib2 2026-04-30 21:00 700K
20260430T18Z_MSC_RDPS_SpecificHumidity_IsbL-1015_RLatLon0.09_PT071H.grib2 2026-04-30 21:00 690K
20260430T18Z_MSC_RDPS_SpecificHumidity_Sfc_RLatLon0.09_PT071H.grib2 2026-04-30 21:00 340K
20260430T18Z_MSC_RDPS_StormRelativeHelicity_EtaL-10000_RLatLon0.09_PT071H.grib2 2026-04-30 21:00 1.0M
20260430T18Z_MSC_RDPS_StormSeverityIndex_EtaL-10000_RLatLon0.09_PT071H.grib2 2026-04-30 21:00 1.2M
20260430T18Z_MSC_RDPS_Thickness_IsbL-0850to0700_RLatLon0.09_PT071H.grib2 2026-04-30 21:00 178K
20260430T18Z_MSC_RDPS_Thickness_IsbL-1000to0500_RLatLon0.09_PT071H.grib2 2026-04-30 21:00 200K
20260430T18Z_MSC_RDPS_Thickness_IsbL-1000to0850_RLatLon0.09_PT071H.grib2 2026-04-30 21:00 268K
20260430T18Z_MSC_RDPS_TotalCloudCover_Sfc_RLatLon0.09_PT071H.grib2 2026-04-30 21:00 654K
20260430T18Z_MSC_RDPS_TotalTotalsIndex_Sfc_RLatLon0.09_PT071H.grib2 2026-04-30 21:00 2.4M
20260430T18Z_MSC_RDPS_UVIndex-ClearSky_Sfc_RLatLon0.09_PT071H.grib2 2026-04-30 21:00 222K
20260430T18Z_MSC_RDPS_UVIndex_Sfc_RLatLon0.09_PT071H.grib2 2026-04-30 21:00 513K
20260430T18Z_MSC_RDPS_UpwardLongwaveRadiationFlux_NTAtm_RLatLon0.09_PT071H.grib2 2026-04-30 21:00 496K
20260430T18Z_MSC_RDPS_UpwardShortwaveRadiationFlux_NTAtm_RLatLon0.09_PT071H.grib2 2026-04-30 21:00 547K
20260430T18Z_MSC_RDPS_VerticalVelocity_IsbL-0250_RLatLon0.09_PT071H.grib2 2026-04-30 21:00 432K
20260430T18Z_MSC_RDPS_VerticalVelocity_IsbL-0500_RLatLon0.09_PT071H.grib2 2026-04-30 21:00 540K
20260430T18Z_MSC_RDPS_VerticalVelocity_IsbL-0700_RLatLon0.09_PT071H.grib2 2026-04-30 21:00 594K
20260430T18Z_MSC_RDPS_VerticalVelocity_IsbL-0850_RLatLon0.09_PT071H.grib2 2026-04-30 21:00 704K
20260430T18Z_MSC_RDPS_VerticalWindShear_EtaL-6500_RLatLon0.09_PT071H.grib2 2026-04-30 21:00 1.2M
20260430T18Z_MSC_RDPS_WindChill_Sfc_RLatLon0.09_PT071H.grib2 2026-04-30 21:00 1.1M
20260430T18Z_MSC_RDPS_WindDir_AGL-10m_RLatLon0.09_PT071H.grib2 2026-04-30 21:00 969K
20260430T18Z_MSC_RDPS_WindDir_AGL-120m_RLatLon0.09_PT071H.grib2 2026-04-30 21:00 615K
20260430T18Z_MSC_RDPS_WindDir_AGL-40m_RLatLon0.09_PT071H.grib2 2026-04-30 21:00 636K
20260430T18Z_MSC_RDPS_WindDir_AGL-80m_RLatLon0.09_PT071H.grib2 2026-04-30 21:00 624K
20260430T18Z_MSC_RDPS_WindDir_IsbL-0001_RLatLon0.09_PT071H.grib2 2026-04-30 21:00 306K
20260430T18Z_MSC_RDPS_WindDir_IsbL-0005_RLatLon0.09_PT071H.grib2 2026-04-30 21:00 378K
20260430T18Z_MSC_RDPS_WindDir_IsbL-0010_RLatLon0.09_PT071H.grib2 2026-04-30 21:00 393K
20260430T18Z_MSC_RDPS_WindDir_IsbL-0020_RLatLon0.09_PT071H.grib2 2026-04-30 21:00 439K
20260430T18Z_MSC_RDPS_WindDir_IsbL-0030_RLatLon0.09_PT071H.grib2 2026-04-30 21:00 429K
20260430T18Z_MSC_RDPS_WindDir_IsbL-0050_RLatLon0.09_PT071H.grib2 2026-04-30 21:00 421K
20260430T18Z_MSC_RDPS_WindDir_IsbL-0100_RLatLon0.09_PT071H.grib2 2026-04-30 21:00 412K
20260430T18Z_MSC_RDPS_WindDir_IsbL-0150_RLatLon0.09_PT071H.grib2 2026-04-30 21:00 407K
20260430T18Z_MSC_RDPS_WindDir_IsbL-0175_RLatLon0.09_PT071H.grib2 2026-04-30 21:00 430K
20260430T18Z_MSC_RDPS_WindDir_IsbL-0200_RLatLon0.09_PT071H.grib2 2026-04-30 21:00 447K
20260430T18Z_MSC_RDPS_WindDir_IsbL-0225_RLatLon0.09_PT071H.grib2 2026-04-30 21:00 455K
20260430T18Z_MSC_RDPS_WindDir_IsbL-0250_RLatLon0.09_PT071H.grib2 2026-04-30 21:00 455K
20260430T18Z_MSC_RDPS_WindDir_IsbL-0275_RLatLon0.09_PT071H.grib2 2026-04-30 21:00 483K
20260430T18Z_MSC_RDPS_WindDir_IsbL-0300_RLatLon0.09_PT071H.grib2 2026-04-30 21:00 477K
20260430T18Z_MSC_RDPS_WindDir_IsbL-0350_RLatLon0.09_PT071H.grib2 2026-04-30 21:00 499K
20260430T18Z_MSC_RDPS_WindDir_IsbL-0400_RLatLon0.09_PT071H.grib2 2026-04-30 21:00 519K
20260430T18Z_MSC_RDPS_WindDir_IsbL-0450_RLatLon0.09_PT071H.grib2 2026-04-30 21:00 527K
20260430T18Z_MSC_RDPS_WindDir_IsbL-0500_RLatLon0.09_PT071H.grib2 2026-04-30 21:00 533K
20260430T18Z_MSC_RDPS_WindDir_IsbL-0550_RLatLon0.09_PT071H.grib2 2026-04-30 21:00 542K
20260430T18Z_MSC_RDPS_WindDir_IsbL-0600_RLatLon0.09_PT071H.grib2 2026-04-30 21:00 561K
20260430T18Z_MSC_RDPS_WindDir_IsbL-0650_RLatLon0.09_PT071H.grib2 2026-04-30 21:00 595K
20260430T18Z_MSC_RDPS_WindDir_IsbL-0700_RLatLon0.09_PT071H.grib2 2026-04-30 21:00 635K
20260430T18Z_MSC_RDPS_WindDir_IsbL-0750_RLatLon0.09_PT071H.grib2 2026-04-30 21:00 681K
20260430T18Z_MSC_RDPS_WindDir_IsbL-0800_RLatLon0.09_PT071H.grib2 2026-04-30 21:00 752K
20260430T18Z_MSC_RDPS_WindDir_IsbL-0850_RLatLon0.09_PT071H.grib2 2026-04-30 21:00 851K
20260430T18Z_MSC_RDPS_WindDir_IsbL-0875_RLatLon0.09_PT071H.grib2 2026-04-30 21:00 890K
20260430T18Z_MSC_RDPS_WindDir_IsbL-0900_RLatLon0.09_PT071H.grib2 2026-04-30 21:00 907K
20260430T18Z_MSC_RDPS_WindDir_IsbL-0925_RLatLon0.09_PT071H.grib2 2026-04-30 21:00 913K
20260430T18Z_MSC_RDPS_WindDir_IsbL-0950_RLatLon0.09_PT071H.grib2 2026-04-30 21:00 911K
20260430T18Z_MSC_RDPS_WindDir_IsbL-0970_RLatLon0.09_PT071H.grib2 2026-04-30 21:00 918K
20260430T18Z_MSC_RDPS_WindDir_IsbL-0985_RLatLon0.09_PT071H.grib2 2026-04-30 21:00 928K
20260430T18Z_MSC_RDPS_WindDir_IsbL-1000_RLatLon0.09_PT071H.grib2 2026-04-30 21:00 944K
20260430T18Z_MSC_RDPS_WindDir_IsbL-1015_RLatLon0.09_PT071H.grib2 2026-04-30 21:00 960K
20260430T18Z_MSC_RDPS_WindGust-Max_AGL-10m_RLatLon0.09_PT071H.grib2 2026-04-30 21:00 1.0M
20260430T18Z_MSC_RDPS_WindGust-Min_AGL-10m_RLatLon0.09_PT071H.grib2 2026-04-30 21:00 1.0M
20260430T18Z_MSC_RDPS_WindGust_AGL-10m_RLatLon0.09_PT071H.grib2 2026-04-30 21:00 1.0M
20260430T18Z_MSC_RDPS_WindSpeed_AGL-10m_RLatLon0.09_PT071H.grib2 2026-04-30 21:00 845K
20260430T18Z_MSC_RDPS_WindSpeed_AGL-120m_RLatLon0.09_PT071H.grib2 2026-04-30 21:00 538K
20260430T18Z_MSC_RDPS_WindSpeed_AGL-40m_RLatLon0.09_PT071H.grib2 2026-04-30 21:00 542K
20260430T18Z_MSC_RDPS_WindSpeed_AGL-80m_RLatLon0.09_PT071H.grib2 2026-04-30 21:00 538K
20260430T18Z_MSC_RDPS_WindSpeed_IsbL-0001_RLatLon0.09_PT071H.grib2 2026-04-30 21:00 257K
20260430T18Z_MSC_RDPS_WindSpeed_IsbL-0005_RLatLon0.09_PT071H.grib2 2026-04-30 21:00 348K
20260430T18Z_MSC_RDPS_WindSpeed_IsbL-0010_RLatLon0.09_PT071H.grib2 2026-04-30 21:00 399K
20260430T18Z_MSC_RDPS_WindSpeed_IsbL-0020_RLatLon0.09_PT071H.grib2 2026-04-30 21:00 325K
20260430T18Z_MSC_RDPS_WindSpeed_IsbL-0030_RLatLon0.09_PT071H.grib2 2026-04-30 21:00 323K
20260430T18Z_MSC_RDPS_WindSpeed_IsbL-0050_RLatLon0.09_PT071H.grib2 2026-04-30 21:00 351K
20260430T18Z_MSC_RDPS_WindSpeed_IsbL-0100_RLatLon0.09_PT071H.grib2 2026-04-30 21:00 476K
20260430T18Z_MSC_RDPS_WindSpeed_IsbL-0150_RLatLon0.09_PT071H.grib2 2026-04-30 21:00 402K
20260430T18Z_MSC_RDPS_WindSpeed_IsbL-0175_RLatLon0.09_PT071H.grib2 2026-04-30 21:00 425K
20260430T18Z_MSC_RDPS_WindSpeed_IsbL-0200_RLatLon0.09_PT071H.grib2 2026-04-30 21:00 441K
20260430T18Z_MSC_RDPS_WindSpeed_IsbL-0225_RLatLon0.09_PT071H.grib2 2026-04-30 21:00 448K
20260430T18Z_MSC_RDPS_WindSpeed_IsbL-0250_RLatLon0.09_PT071H.grib2 2026-04-30 21:00 450K
20260430T18Z_MSC_RDPS_WindSpeed_IsbL-0275_RLatLon0.09_PT071H.grib2 2026-04-30 21:00 469K
20260430T18Z_MSC_RDPS_WindSpeed_IsbL-0300_RLatLon0.09_PT071H.grib2 2026-04-30 21:00 465K
20260430T18Z_MSC_RDPS_WindSpeed_IsbL-0350_RLatLon0.09_PT071H.grib2 2026-04-30 21:00 474K
20260430T18Z_MSC_RDPS_WindSpeed_IsbL-0400_RLatLon0.09_PT071H.grib2 2026-04-30 21:00 462K
20260430T18Z_MSC_RDPS_WindSpeed_IsbL-0450_RLatLon0.09_PT071H.grib2 2026-04-30 21:00 460K
20260430T18Z_MSC_RDPS_WindSpeed_IsbL-0500_RLatLon0.09_PT071H.grib2 2026-04-30 21:00 459K
20260430T18Z_MSC_RDPS_WindSpeed_IsbL-0550_RLatLon0.09_PT071H.grib2 2026-04-30 21:00 461K
20260430T18Z_MSC_RDPS_WindSpeed_IsbL-0600_RLatLon0.09_PT071H.grib2 2026-04-30 21:00 586K
20260430T18Z_MSC_RDPS_WindSpeed_IsbL-0650_RLatLon0.09_PT071H.grib2 2026-04-30 21:00 607K
20260430T18Z_MSC_RDPS_WindSpeed_IsbL-0700_RLatLon0.09_PT071H.grib2 2026-04-30 21:00 632K
20260430T18Z_MSC_RDPS_WindSpeed_IsbL-0750_RLatLon0.09_PT071H.grib2 2026-04-30 21:00 708K
20260430T18Z_MSC_RDPS_WindSpeed_IsbL-0800_RLatLon0.09_PT071H.grib2 2026-04-30 21:00 758K
20260430T18Z_MSC_RDPS_WindSpeed_IsbL-0850_RLatLon0.09_PT071H.grib2 2026-04-30 21:00 823K
20260430T18Z_MSC_RDPS_WindSpeed_IsbL-0875_RLatLon0.09_PT071H.grib2 2026-04-30 21:00 848K
20260430T18Z_MSC_RDPS_WindSpeed_IsbL-0900_RLatLon0.09_PT071H.grib2 2026-04-30 21:00 858K
20260430T18Z_MSC_RDPS_WindSpeed_IsbL-0925_RLatLon0.09_PT071H.grib2 2026-04-30 21:00 867K
20260430T18Z_MSC_RDPS_WindSpeed_IsbL-0950_RLatLon0.09_PT071H.grib2 2026-04-30 21:00 865K
20260430T18Z_MSC_RDPS_WindSpeed_IsbL-0970_RLatLon0.09_PT071H.grib2 2026-04-30 21:00 861K
20260430T18Z_MSC_RDPS_WindSpeed_IsbL-0985_RLatLon0.09_PT071H.grib2 2026-04-30 21:00 857K
20260430T18Z_MSC_RDPS_WindSpeed_IsbL-1000_RLatLon0.09_PT071H.grib2 2026-04-30 21:00 853K
20260430T18Z_MSC_RDPS_WindSpeed_IsbL-1015_RLatLon0.09_PT071H.grib2 2026-04-30 21:00 844K
20260430T18Z_MSC_RDPS_WindU_AGL-10m_RLatLon0.09_PT071H.grib2 2026-04-30 21:00 437K
20260430T18Z_MSC_RDPS_WindU_AGL-120m_RLatLon0.09_PT071H.grib2 2026-04-30 21:00 419K
20260430T18Z_MSC_RDPS_WindU_AGL-40m_RLatLon0.09_PT071H.grib2 2026-04-30 21:00 538K
20260430T18Z_MSC_RDPS_WindU_AGL-80m_RLatLon0.09_PT071H.grib2 2026-04-30 21:00 420K
20260430T18Z_MSC_RDPS_WindU_IsbL-0001_RLatLon0.09_PT071H.grib2 2026-04-30 21:00 294K
20260430T18Z_MSC_RDPS_WindU_IsbL-0005_RLatLon0.09_PT071H.grib2 2026-04-30 21:00 282K
20260430T18Z_MSC_RDPS_WindU_IsbL-0010_RLatLon0.09_PT071H.grib2 2026-04-30 21:00 297K
20260430T18Z_MSC_RDPS_WindU_IsbL-0020_RLatLon0.09_PT071H.grib2 2026-04-30 21:00 316K
20260430T18Z_MSC_RDPS_WindU_IsbL-0030_RLatLon0.09_PT071H.grib2 2026-04-30 21:00 355K
20260430T18Z_MSC_RDPS_WindU_IsbL-0050_RLatLon0.09_PT071H.grib2 2026-04-30 21:00 380K
20260430T18Z_MSC_RDPS_WindU_IsbL-0100_RLatLon0.09_PT071H.grib2 2026-04-30 21:00 432K
20260430T18Z_MSC_RDPS_WindU_IsbL-0150_RLatLon0.09_PT071H.grib2 2026-04-30 21:00 395K
20260430T18Z_MSC_RDPS_WindU_IsbL-0175_RLatLon0.09_PT071H.grib2 2026-04-30 21:00 418K
20260430T18Z_MSC_RDPS_WindU_IsbL-0200_RLatLon0.09_PT071H.grib2 2026-04-30 21:00 336K
20260430T18Z_MSC_RDPS_WindU_IsbL-0225_RLatLon0.09_PT071H.grib2 2026-04-30 21:00 340K
20260430T18Z_MSC_RDPS_WindU_IsbL-0250_RLatLon0.09_PT071H.grib2 2026-04-30 21:00 341K
20260430T18Z_MSC_RDPS_WindU_IsbL-0275_RLatLon0.09_PT071H.grib2 2026-04-30 21:00 356K
20260430T18Z_MSC_RDPS_WindU_IsbL-0300_RLatLon0.09_PT071H.grib2 2026-04-30 21:00 453K
20260430T18Z_MSC_RDPS_WindU_IsbL-0350_RLatLon0.09_PT071H.grib2 2026-04-30 21:00 461K
20260430T18Z_MSC_RDPS_WindU_IsbL-0400_RLatLon0.09_PT071H.grib2 2026-04-30 21:00 466K
20260430T18Z_MSC_RDPS_WindU_IsbL-0450_RLatLon0.09_PT071H.grib2 2026-04-30 21:00 465K
20260430T18Z_MSC_RDPS_WindU_IsbL-0500_RLatLon0.09_PT071H.grib2 2026-04-30 21:00 466K
20260430T18Z_MSC_RDPS_WindU_IsbL-0550_RLatLon0.09_PT071H.grib2 2026-04-30 21:00 468K
20260430T18Z_MSC_RDPS_WindU_IsbL-0600_RLatLon0.09_PT071H.grib2 2026-04-30 21:00 475K
20260430T18Z_MSC_RDPS_WindU_IsbL-0650_RLatLon0.09_PT071H.grib2 2026-04-30 21:00 477K
20260430T18Z_MSC_RDPS_WindU_IsbL-0700_RLatLon0.09_PT071H.grib2 2026-04-30 21:00 516K
20260430T18Z_MSC_RDPS_WindU_IsbL-0750_RLatLon0.09_PT071H.grib2 2026-04-30 21:00 528K
20260430T18Z_MSC_RDPS_WindU_IsbL-0800_RLatLon0.09_PT071H.grib2 2026-04-30 21:00 571K
20260430T18Z_MSC_RDPS_WindU_IsbL-0850_RLatLon0.09_PT071H.grib2 2026-04-30 21:00 629K
20260430T18Z_MSC_RDPS_WindU_IsbL-0875_RLatLon0.09_PT071H.grib2 2026-04-30 21:00 658K
20260430T18Z_MSC_RDPS_WindU_IsbL-0900_RLatLon0.09_PT071H.grib2 2026-04-30 21:00 665K
20260430T18Z_MSC_RDPS_WindU_IsbL-0925_RLatLon0.09_PT071H.grib2 2026-04-30 21:00 664K
20260430T18Z_MSC_RDPS_WindU_IsbL-0950_RLatLon0.09_PT071H.grib2 2026-04-30 21:00 659K
20260430T18Z_MSC_RDPS_WindU_IsbL-0970_RLatLon0.09_PT071H.grib2 2026-04-30 21:00 657K
20260430T18Z_MSC_RDPS_WindU_IsbL-0985_RLatLon0.09_PT071H.grib2 2026-04-30 21:00 654K
20260430T18Z_MSC_RDPS_WindU_IsbL-1000_RLatLon0.09_PT071H.grib2 2026-04-30 21:00 791K
20260430T18Z_MSC_RDPS_WindU_IsbL-1015_RLatLon0.09_PT071H.grib2 2026-04-30 21:00 785K
20260430T18Z_MSC_RDPS_WindV_AGL-10m_RLatLon0.09_PT071H.grib2 2026-04-30 21:00 437K
20260430T18Z_MSC_RDPS_WindV_AGL-120m_RLatLon0.09_PT071H.grib2 2026-04-30 21:00 420K
20260430T18Z_MSC_RDPS_WindV_AGL-40m_RLatLon0.09_PT071H.grib2 2026-04-30 21:00 540K
20260430T18Z_MSC_RDPS_WindV_AGL-80m_RLatLon0.09_PT071H.grib2 2026-04-30 21:00 537K
20260430T18Z_MSC_RDPS_WindV_IsbL-0001_RLatLon0.09_PT071H.grib2 2026-04-30 21:00 249K
20260430T18Z_MSC_RDPS_WindV_IsbL-0005_RLatLon0.09_PT071H.grib2 2026-04-30 21:00 285K
20260430T18Z_MSC_RDPS_WindV_IsbL-0010_RLatLon0.09_PT071H.grib2 2026-04-30 21:00 389K
20260430T18Z_MSC_RDPS_WindV_IsbL-0020_RLatLon0.09_PT071H.grib2 2026-04-30 21:00 320K
20260430T18Z_MSC_RDPS_WindV_IsbL-0030_RLatLon0.09_PT071H.grib2 2026-04-30 21:00 318K
20260430T18Z_MSC_RDPS_WindV_IsbL-0050_RLatLon0.09_PT071H.grib2 2026-04-30 21:00 343K
20260430T18Z_MSC_RDPS_WindV_IsbL-0100_RLatLon0.09_PT071H.grib2 2026-04-30 21:00 333K
20260430T18Z_MSC_RDPS_WindV_IsbL-0150_RLatLon0.09_PT071H.grib2 2026-04-30 21:00 396K
20260430T18Z_MSC_RDPS_WindV_IsbL-0175_RLatLon0.09_PT071H.grib2 2026-04-30 21:00 325K
20260430T18Z_MSC_RDPS_WindV_IsbL-0200_RLatLon0.09_PT071H.grib2 2026-04-30 21:00 336K
20260430T18Z_MSC_RDPS_WindV_IsbL-0225_RLatLon0.09_PT071H.grib2 2026-04-30 21:00 366K
20260430T18Z_MSC_RDPS_WindV_IsbL-0250_RLatLon0.09_PT071H.grib2 2026-04-30 21:00 366K
20260430T18Z_MSC_RDPS_WindV_IsbL-0275_RLatLon0.09_PT071H.grib2 2026-04-30 21:00 380K
20260430T18Z_MSC_RDPS_WindV_IsbL-0300_RLatLon0.09_PT071H.grib2 2026-04-30 21:00 376K
20260430T18Z_MSC_RDPS_WindV_IsbL-0350_RLatLon0.09_PT071H.grib2 2026-04-30 21:00 357K
20260430T18Z_MSC_RDPS_WindV_IsbL-0400_RLatLon0.09_PT071H.grib2 2026-04-30 21:00 361K
20260430T18Z_MSC_RDPS_WindV_IsbL-0450_RLatLon0.09_PT071H.grib2 2026-04-30 21:00 360K
20260430T18Z_MSC_RDPS_WindV_IsbL-0500_RLatLon0.09_PT071H.grib2 2026-04-30 21:00 463K
20260430T18Z_MSC_RDPS_WindV_IsbL-0550_RLatLon0.09_PT071H.grib2 2026-04-30 21:00 465K
20260430T18Z_MSC_RDPS_WindV_IsbL-0600_RLatLon0.09_PT071H.grib2 2026-04-30 21:00 472K
20260430T18Z_MSC_RDPS_WindV_IsbL-0650_RLatLon0.09_PT071H.grib2 2026-04-30 21:00 489K
20260430T18Z_MSC_RDPS_WindV_IsbL-0700_RLatLon0.09_PT071H.grib2 2026-04-30 21:00 511K
20260430T18Z_MSC_RDPS_WindV_IsbL-0750_RLatLon0.09_PT071H.grib2 2026-04-30 21:00 539K
20260430T18Z_MSC_RDPS_WindV_IsbL-0800_RLatLon0.09_PT071H.grib2 2026-04-30 21:00 581K
20260430T18Z_MSC_RDPS_WindV_IsbL-0850_RLatLon0.09_PT071H.grib2 2026-04-30 21:00 637K
20260430T18Z_MSC_RDPS_WindV_IsbL-0875_RLatLon0.09_PT071H.grib2 2026-04-30 21:00 658K
20260430T18Z_MSC_RDPS_WindV_IsbL-0900_RLatLon0.09_PT071H.grib2 2026-04-30 21:00 658K
20260430T18Z_MSC_RDPS_WindV_IsbL-0925_RLatLon0.09_PT071H.grib2 2026-04-30 21:00 663K
20260430T18Z_MSC_RDPS_WindV_IsbL-0950_RLatLon0.09_PT071H.grib2 2026-04-30 21:00 660K
20260430T18Z_MSC_RDPS_WindV_IsbL-0970_RLatLon0.09_PT071H.grib2 2026-04-30 21:00 659K
20260430T18Z_MSC_RDPS_WindV_IsbL-0985_RLatLon0.09_PT071H.grib2 2026-04-30 21:00 796K
20260430T18Z_MSC_RDPS_WindV_IsbL-1000_RLatLon0.09_PT071H.grib2 2026-04-30 21:00 792K
20260430T18Z_MSC_RDPS_WindV_IsbL-1015_RLatLon0.09_PT071H.grib2 2026-04-30 21:00 786K